Simultaneous Nadir Overpasses (SNOs) Predictions

Prediction of SNOs between NOAA-20 and TERRA Satellite Orbit:

Table of predicted SNOs for the next 14.0 days since TLE Epoch: 10/5/2024
Index Date (NOAA-20) Time (NOAA-20) Lat,Lon (NOAA-20) SZA (NOAA-20 ) Date (TERRA) Time (TERRA) Lat,Lon (TERRA) SZA (TERRA ) Distance(km) Time Diff (sec)
1 10/07/2024 11:55:20 72.71, -7.21 78.48 10/07/2024 11:56:10 72.72, -7.20 78.49 1.79 50
2 10/07/2024 12:46:02 -72.61, 160.30 101.61 10/07/2024 12:45:35 -72.59, 160.22 101.62 3.21 27
3 10/09/2024 23:07:49 72.76,-175.44 79.47 10/09/2024 23:08:46 72.74,-175.35 79.44 3.66 57
4 10/09/2024 23:58:30 -72.61, -7.83 100.67 10/09/2024 23:58:11 -72.61, -7.93 100.67 3.31 19
5 10/12/2024 10:20:15 72.74, 16.48 80.38 10/12/2024 10:21:19 72.73, 16.45 80.36 1.45 64
6 10/12/2024 11:10:57 -72.65,-176.01 99.71 10/12/2024 11:10:43 -72.66,-176.03 99.70 1.20 14
7 10/14/2024 21:32:42 72.75,-151.66 81.30 10/14/2024 21:33:50 72.74,-151.70 81.28 1.83 68
8 10/14/2024 22:23:24 -72.66, 15.85 98.79 10/14/2024 22:23:14 -72.66, 15.82 98.78 1.34 10
9 10/14/2024 23:13:53 71.78,-175.14 80.32 10/14/2024 23:12:48 71.82,-178.00 80.43 99.50 65
10 10/17/2024 08:45:09 72.79, 40.14 82.24 10/17/2024 08:46:18 72.77, 40.20 82.21 2.82 69
11 10/17/2024 09:35:51 -72.70,-152.35 97.85 10/17/2024 09:35:42 -72.69,-152.29 97.85 1.95 9



Historial Predications of SNOs between NOAA-20 and TERRA
